Location: Bothwell
(41.7170°N, 112.2589°W)
Time: 02:27:19
(UTC+00:00)

Tiros 1 - Pass Details

Date: 15 May 2026
Orbit: 618 x 649 km, 48.4° (Epoch: 6 June)

Event Time Altitude Azimuth Distance (km) Brightness Sun altitude
Rises 10:38:07 0° 292° (WNW) 2,903 10.3 -14.8°
Reaches altitude 10° 10:40:34 10° 300° (WNW) 1,991 9.5 -14.4°
Maximum altitude 10:44:51 38° 9° (N) 948 8.5 -13.8°
Drops below altitude 10° 10:49:06 10° 78° (ENE) 1,979 10.6 -13.3°
Sets 10:51:32 0° 87° (E) 2,883 11.4 -12.9°
